DW0156 Weather Reports


Display with metric or nautical units.
time (UTC)temp
F
wind
direction
speed
MPH
gust
MPH
rain 1hr
in
rain 24hr
in
rain mn
in
humidity
%
barometer
mb
20260510010701 62 263 0.0 2.0 0.00 0.00 0.00 67 1030.3
20260510010156 62 263 0.0 2.0 0.00 0.00 0.00 68 1030.3
20260510005659 61 263 0.0 0.0 0.00 0.00 0.00 69 1030.2
20260510003915 61 263 0.0 3.0 0.00 0.00 0.00 71 1030.3
20260510002753 60 263 1.0 3.0 0.00 0.00 0.00 71 1030.3
20260510002243 60 263 0.0 3.0 0.00 0.00 0.00 71 1030.3
20260510001729 60 263 0.0 3.0 0.00 0.00 0.00 72 1030.3
20260510001222 60 263 0.0 0.0 0.00 0.00 0.00 72 1030.4
20260510000705 60 263 1.0 3.0 0.00 0.00 0.00 72 1030.4
20260510000200 60 263 1.0 6.0 0.00 0.00 0.00 72 1030.4
20260509235656 60 263 2.0 7.0 0.00 0.00 0.00 72 1030.4
20260509235200 59 263 2.0 7.0 0.00 0.00 0.00 72 1030.4
20260509234659 59 263 2.0 7.0 0.00 0.00 0.00 73 1030.4
20260509234206 59 263 2.0 7.0 0.00 0.00 0.00 73 1030.4
20260509233650 59 263 2.0 6.0 0.00 0.00 0.00 75 1030.4
20260509233134 59 263 2.0 8.0 0.00 0.00 0.00 75 1030.4
20260509232614 59 263 2.0 8.0 0.00 0.00 0.00 76 1030.3
20260509232111 58 263 3.0 9.0 0.00 0.00 0.00 77 1030.3
20260509231617 58 263 3.0 9.0 0.00 0.00 0.00 77 1030.3
20260509231125 58 263 2.0 9.0 0.00 0.00 0.00 79 1030.1
20260509230613 58 263 3.0 9.0 0.00 0.00 0.00 80 1030.1
20260509230120 57 263 2.0 5.0 0.00 0.00 0.00 82 1030.1
20260509225626 57 263 2.0 5.0 0.00 0.00 0.00 84 1030.1
20260509225109 57 263 3.0 5.0 0.00 0.00 0.00 85 1030.1
20260509224607 56 263 1.0 5.0 0.00 0.00 0.00 86 1030.1
20260509224115 56 263 1.0 5.0 0.00 0.00 0.00 87 1030.0
20260509223612 56 263 1.0 5.0 0.00 0.00 0.00 88 1030.0
20260509223119 56 263 1.0 5.0 0.00 0.00 0.00 89 1030.0
20260509222623 55 263 1.0 5.0 0.00 0.00 0.00 89 1029.6
20260509222108 55 263 1.0 4.0 0.00 0.00 0.00 90 1029.6
20260509221615 55 263 0.0 3.0 0.00 0.00 0.00 90 1029.6
20260509221108 54 263 0.0 0.0 0.00 0.00 0.00 91 1029.6
20260509220606 54 263 0.0 0.0 0.00 0.00 0.00 91 1029.6
20260509220114 54 263 0.0 0.0 0.00 0.00 0.00 91 1029.6
20260509215605 54 263 0.0 2.0 0.00 0.00 0.00 91 1029.4
20260509215051 54 263 0.0 1.0 0.00 0.00 0.00 91 1029.4
20260509214544 53 263 0.0 1.0 0.00 0.00 0.00 91 1029.4
20260509213429 53 263 0.0 0.0 0.00 0.00 0.00 91 1029.1
20260509212257 53 263 0.0 1.0 0.00 0.00 0.00 91 1029.1
20260509211758 53 263 0.0 0.0 0.00 0.00 0.00 91 1029.1
20260509211254 52 263 0.0 0.0 0.00 0.00 0.00 91 1029.1
20260509210143 52 263 0.0 0.0 0.00 0.00 0.00 91 1029.1
20260509205628 52 263 0.0 0.0 0.00 0.00 0.00 91 1029.0
20260509205114 52 263 0.0 0.0 0.00 0.00 0.00 91 1029.0
20260509204606 52 263 0.0 0.0 0.00 0.00 0.00 91 1029.0
20260509204109 52 263 0.0 0.0 0.00 0.00 0.00 91 1028.8
20260509203614 52 263 0.0 0.0 0.00 0.00 0.00 91 1028.8
20260509203116 52 263 0.0 0.0 0.00 0.00 0.00 91 1028.8
20260509202603 53 263 0.0 0.0 0.00 0.00 0.00 91 1028.6
20260509202047 53 263 0.0 0.0 0.00 0.00 0.00 91 1028.6
20260509201544 53 263 0.0 1.0 0.00 0.00 0.00 91 1028.6
20260509201035 53 263 0.0 0.0 0.00 0.00 0.00 91 1028.5
20260509200523 53 263 0.0 0.0 0.00 0.00 0.00 91 1028.5
20260509200007 53 263 0.0 0.0 0.00 0.00 0.00 91 1028.5
20260509195004 53 263 0.0 0.0 0.00 0.00 0.00 91 1028.5
20260509194508 53 263 0.0 0.0 0.00 0.00 0.00 91 1028.5
20260509194013 53 263 0.0 0.0 0.00 0.00 0.00 91 1028.5
20260509193522 53 263 0.0 0.0 0.00 0.00 0.00 90 1028.5
20260509193006 53 263 0.0 0.0 0.00 0.00 0.00 90 1028.5
20260509192509 53 263 0.0 0.0 0.00 0.00 0.00 90 1028.4
20260509192018 53 263 0.0 0.0 0.00 0.00 0.00 91 1028.4
20260509191510 53 263 0.0 0.0 0.00 0.00 0.00 91 1028.4
20260509190951 53 263 0.0 0.0 0.00 0.00 0.00 91 1028.2
20260509190433 53 263 0.0 0.0 0.00 0.00 0.00 90 1028.2
20260509185923 53 263 0.0 0.0 0.00 0.00 0.00 90 1028.2
20260509185427 54 263 0.0 0.0 0.00 0.00 0.00 90 1028.1
20260509183645 54 263 0.0 0.0 0.00 0.00 0.00 90 1028.1
20260509183150 54 263 0.0 0.0 0.00 0.00 0.00 90 1028.1
20260509182631 54 263 0.0 0.0 0.00 0.00 0.00 90 1028.0
20260509182120 54 263 0.0 0.0 0.00 0.00 0.00 90 1028.0
20260509181628 55 263 0.0 0.0 0.00 0.00 0.00 91 1028.0
20260509181133 54 263 0.0 0.0 0.00 0.00 0.00 91 1028.0
20260509180616 54 263 0.0 2.0 0.00 0.00 0.00 91 1028.0
20260509175547 54 263 0.0 2.0 0.00 0.00 0.00 91 1028.0
20260509175032 54 263 0.0 0.0 0.00 0.00 0.00 91 1028.0
20260509173319 54 263 0.0 0.0 0.00 0.00 0.00 90 1028.0
20260509172158 53 263 0.0 2.0 0.00 0.00 0.00 90 1028.0
20260509171646 53 263 0.0 0.0 0.00 0.00 0.00 90 1028.0
20260509171138 53 263 0.0 0.0 0.00 0.00 0.00 90 1028.1
20260509170644 53 263 0.0 0.0 0.00 0.00 0.00 90 1028.1
20260509170131 53 263 0.0 0.0 0.00 0.00 0.00 90 1028.1
20260509165617 53 263 0.0 0.0 0.00 0.00 0.00 90 1028.3
20260509165119 53 263 0.0 0.0 0.00 0.00 0.00 90 1028.3
20260509164603 53 263 0.0 0.0 0.00 0.00 0.00 89 1028.3
20260509164044 53 263 0.0 0.0 0.00 0.00 0.00 89 1028.4
20260509163549 53 263 0.0 0.0 0.00 0.00 0.00 89 1028.4
20260509163037 53 263 0.0 0.0 0.00 0.00 0.00 89 1028.4
20260509162519 53 263 0.0 0.0 0.00 0.00 0.00 89 1028.5
20260509162018 53 263 0.0 0.0 0.00 0.00 0.00 89 1028.5
20260509161500 53 263 0.0 0.0 0.00 0.00 0.00 89 1028.5
20260509160954 53 263 0.0 0.0 0.00 0.00 0.00 89 1028.5
20260509160440 53 263 0.0 0.0 0.00 0.00 0.00 88 1028.5
20260509155939 53 263 0.0 0.0 0.00 0.00 0.00 88 1028.5
20260509155425 53 263 0.0 0.0 0.00 0.00 0.00 88 1028.5
20260509154919 53 263 0.0 0.0 0.00 0.00 0.00 88 1028.5
20260509153759 53 263 0.0 0.0 0.00 0.00 0.00 88 1028.5
20260509153259 53 263 0.0 0.0 0.00 0.00 0.00 88 1028.5
20260509152800 53 263 0.0 0.0 0.00 0.00 0.00 88 1028.5
20260509152254 53 263 0.0 0.0 0.00 0.00 0.00 88 1028.5
20260509151802 54 263 0.0 0.0 0.00 0.00 0.00 88 1028.5
20260509150629 54 263 0.0 0.0 0.00 0.00 0.00 88 1028.6
20260509150123 54 263 0.0 0.0 0.00 0.00 0.00 88 1028.6
20260509144955 53 263 0.0 0.0 0.00 0.00 0.00 88 1028.7
20260509144446 53 263 0.0 1.0 0.00 0.00 0.00 88 1028.7
20260509143949 53 263 0.0 1.0 0.00 0.00 0.00 87 1028.8
20260509143455 53 263 0.0 0.0 0.00 0.00 0.00 87 1028.8
20260509142954 53 263 0.0 0.0 0.00 0.00 0.00 87 1028.8
20260509142443 53 263 0.0 0.0 0.00 0.00 0.00 87 1028.9
20260509141928 53 263 0.0 0.0 0.00 0.00 0.00 86 1028.9
20260509141410 53 263 0.0 0.0 0.00 0.00 0.00 86 1028.9
20260509140901 53 263 0.0 0.0 0.00 0.00 0.00 86 1028.9
20260509140344 54 263 0.0 0.0 0.00 0.00 0.00 86 1028.9
20260509135834 54 263 0.0 0.0 0.00 0.00 0.00 86 1029.0
20260509135323 54 263 0.0 0.0 0.00 0.00 0.00 86 1029.0
20260509134808 54 263 0.0 0.0 0.00 0.00 0.00 85 1029.0
20260509134310 54 263 0.0 0.0 0.00 0.00 0.00 85 1028.9
20260509133804 54 263 0.0 0.0 0.00 0.00 0.00 85 1028.9
20260509133253 55 263 0.0 0.0 0.00 0.00 0.00 85 1028.9
20260509132132 55 263 0.0 0.0 0.00 0.00 0.00 85 1028.9
20260509131004 55 263 0.0 0.0 0.00 0.00 0.00 85 1029.0
20260509130508 55 263 0.0 0.0 0.00 0.00 0.00 85 1029.0
20260509125951 56 263 0.0 0.0 0.00 0.00 0.00 85 1029.0
20260509125441 56 263 0.0 0.0 0.00 0.00 0.00 85 1029.0
20260509124937 56 263 0.0 0.0 0.00 0.00 0.00 85 1029.0
20260509124444 56 263 0.0 0.0 0.00 0.00 0.00 85 1029.0
20260509123934 56 263 0.0 0.0 0.00 0.00 0.00 86 1029.0
20260509123435 56 263 0.0 0.0 0.00 0.00 0.00 86 1029.0
20260509122334 56 263 1.0 8.0 0.00 0.00 0.00 86 1029.0
20260509121833 56 263 1.0 7.0 0.00 0.00 0.00 86 1029.0
20260509120712 56 263 0.0 1.0 0.00 0.00 0.00 85 1029.0
20260509120201 56 263 0.0 1.0 0.00 0.00 0.00 85 1029.0
20260509115653 56 263 0.0 1.0 0.00 0.00 0.00 85 1028.8
20260509114532 56 263 0.0 0.0 0.00 0.00 0.00 85 1028.8
20260509114040 56 263 0.0 0.0 0.00 0.00 0.00 85 1028.8
20260509113548 56 263 0.0 2.0 0.00 0.00 0.00 84 1028.8
20260509113055 56 263 0.0 0.0 0.00 0.00 0.00 84 1028.8
20260509112555 56 263 0.0 3.0 0.00 0.00 0.00 84 1028.7
20260509111435 56 263 0.0 0.0 0.00 0.00 0.00 84 1028.7
20260509110921 56 263 0.0 0.0 0.00 0.00 0.00 83 1028.8
20260509110425 56 263 0.0 0.0 0.00 0.00 0.00 83 1028.8
20260509105915 57 263 0.0 0.0 0.00 0.00 0.00 83 1028.8
20260509105424 57 263 0.0 0.0 0.00 0.00 0.00 83 1028.8
20260509104258 57 263 0.0 1.0 0.00 0.00 0.00 82 1028.8
20260509103808 57 263 0.0 0.0 0.00 0.00 0.00 82 1028.8
20260509103249 57 263 0.0 0.0 0.00 0.00 0.00 81 1028.8
20260509102747 58 263 0.0 0.0 0.00 0.00 0.00 81 1028.9
20260509102231 58 263 0.0 0.0 0.00 0.00 0.00 81 1028.9
20260509101727 58 263 0.0 0.0 0.00 0.00 0.00 81 1028.9
20260509100623 58 263 0.0 0.0 0.00 0.00 0.00 81 1028.9
20260509100107 59 263 0.0 0.0 0.00 0.00 0.00 81 1028.9
20260509095602 59 263 0.0 0.0 0.00 0.00 0.00 81 1028.8
20260509095048 59 263 0.0 0.0 0.00 0.00 0.00 81 1028.8
20260509094531 59 263 0.0 0.0 0.00 0.00 0.00 81 1028.8
20260509094022 59 263 0.0 2.0 0.00 0.00 0.00 81 1028.6
20260509092843 59 263 0.0 3.0 0.00 0.00 0.00 80 1028.6
20260509092344 60 263 0.0 3.0 0.00 0.00 0.00 80 1028.6
20260509091233 60 263 0.0 4.0 0.00 0.00 0.00 80 1028.6
20260509090724 60 263 0.0 4.0 0.00 0.00 0.00 80 1028.6
20260509090211 60 263 0.0 4.0 0.00 0.00 0.00 80 1028.6
20260509085719 60 263 1.0 5.0 0.00 0.00 0.00 79 1028.5
20260509085220 60 263 0.0 5.0 0.00 0.00 0.00 79 1028.5
20260509084706 60 263 0.0 1.0 0.00 0.00 0.00 79 1028.5
20260509084153 60 263 0.0 0.0 0.00 0.00 0.00 79 1028.5
20260509083645 60 263 0.0 3.0 0.00 0.00 0.00 79 1028.5
20260509083153 61 263 0.0 0.0 0.00 0.00 0.00 79 1028.5
20260509082018 61 263 0.0 4.0 0.00 0.00 0.00 79 1028.4
20260509081517 61 263 0.0 0.0 0.00 0.00 0.00 79 1028.4
20260509075140 61 263 1.0 0.0 0.00 0.00 0.00 79 1028.1
20260509074038 61 263 1.0 6.0 0.00 0.00 0.00 79 1028.1
20260509073536 61 263 1.0 5.0 0.00 0.00 0.00 80 1028.1
20260509073044 62 263 0.0 5.0 0.00 0.00 0.00 81 1028.1
20260509072544 62 263 0.0 2.0 0.00 0.00 0.00 81 1028.1
20260509072027 62 263 0.0 3.0 0.00 0.00 0.00 82 1028.1
20260509071532 62 263 0.0 3.0 0.00 0.00 0.00 82 1028.1
20260509071026 62 263 0.0 3.0 0.00 0.00 0.00 83 1028.0
20260509070519 62 263 0.0 1.0 0.00 0.00 0.00 83 1028.0
20260509070000 62 263 0.0 3.0 0.00 0.00 0.00 83 1028.0
20260509064850 62 263 0.0 6.0 0.00 0.00 0.00 82 1028.0
20260509064333 62 263 1.0 6.0 0.00 0.00 0.00 82 1028.0
20260509063226 62 263 1.0 6.0 0.00 0.00 0.00 81 1028.0
20260509062735 62 263 1.0 3.0 0.00 0.00 0.00 81 1028.0
20260509061601 62 263 2.0 6.0 0.00 0.00 0.00 81 1028.0
20260509061043 62 263 2.0 9.0 0.00 0.00 0.00 82 1027.9
20260509060553 62 263 3.0 9.0 0.00 0.00 0.00 82 1027.9
20260509060058 62 263 3.0 9.0 0.00 0.00 0.00 81 1027.9
20260509054311 63 263 2.0 9.0 0.00 0.00 0.00 80 1028.0
20260509053754 63 263 3.0 9.0 0.00 0.00 0.00 79 1028.0
20260509052629 63 263 1.0 6.0 0.00 0.00 0.00 79 1028.0
20260509052121 63 263 2.0 6.0 0.00 0.00 0.00 79 1028.0
20260509051613 63 263 2.0 6.0 0.00 0.00 0.00 79 1028.0
20260509051055 63 263 2.0 5.0 0.00 0.00 0.00 79 1028.0
20260509045245 63 263 2.0 7.0 0.00 0.00 0.00 79 1028.0
20260509044734 63 263 3.0 8.0 0.00 0.00 0.00 79 1028.0
20260509044220 63 263 3.0 8.0 0.00 0.00 0.00 79 1028.0
20260509043729 63 263 3.0 8.0 0.00 0.00 0.00 80 1028.0
20260509043212 63 263 2.0 8.0 0.00 0.00 0.00 81 1028.0
20260509042712 63 263 2.0 7.0 0.00 0.00 0.00 81 1028.2
20260509042217 62 263 3.0 10.0 0.00 0.00 0.00 81 1028.2
20260509041713 62 263 3.0 10.0 0.00 0.00 0.00 82 1028.2
20260509041217 62 263 3.0 11.0 0.00 0.00 0.00 82 1028.2
20260509040717 62 263 3.0 11.0 0.00 0.00 0.00 83 1028.2
20260509040210 62 263 4.0 11.0 0.00 0.00 0.00 82 1028.2
20260509035654 62 263 4.0 11.0 0.00 0.00 0.00 82 1028.4
20260509035149 62 263 4.0 9.0 0.00 0.00 0.00 82 1028.4
20260509034657 62 263 4.0 9.0 0.00 0.00 0.00 82 1028.4
20260509033556 62 263 4.0 10.0 0.00 0.00 0.00 82 1028.6
20260509033046 62 263 4.0 10.0 0.00 0.00 0.00 82 1028.6
20260509032541 62 263 4.0 10.0 0.00 0.00 0.00 82 1028.8
20260509032041 62 263 4.0 10.0 0.00 0.00 0.00 81 1028.8
20260509031530 62 263 3.0 9.0 0.00 0.00 0.00 81 1028.8
20260509030417 62 263 3.0 6.0 0.00 0.00 0.00 81 1029.1
20260509025918 62 263 3.0 6.0 0.00 0.00 0.00 81 1029.1
20260509025418 62 263 3.0 9.0 0.00 0.00 0.00 80 1029.2
20260509024923 63 263 3.0 9.0 0.00 0.00 0.00 79 1029.2
20260509024423 63 263 3.0 9.0 0.00 0.00 0.00 78 1029.2
20260509023906 63 263 2.0 9.0 0.00 0.00 0.00 77 1029.5
20260509023410 63 263 1.0 5.0 0.00 0.00 0.00 78 1029.5
20260509022310 62 263 2.0 5.0 0.00 0.00 0.00 78 1029.7
20260509021820 62 263 2.0 5.0 0.00 0.00 0.00 78 1029.7
20260509021317 62 263 2.0 5.0 0.00 0.00 0.00 78 1030.0
20260509020146 62 263 2.0 5.0 0.00 0.00 0.00 78 1030.0
20260509015631 63 263 2.0 6.0 0.00 0.00 0.00 78 1030.1
20260509015110 63 263 2.0 6.0 0.00 0.00 0.00 78 1030.1
20260509014557 63 263 2.0 6.0 0.00 0.00 0.00 78 1030.1
20260509014041 63 263 2.0 6.0 0.00 0.00 0.00 78 1030.1
20260509013526 63 263 1.0 5.0 0.00 0.00 0.00 80 1030.1
20260509013027 63 263 1.0 5.0 0.00 0.00 0.00 80 1030.1
20260509012527 62 263 1.0 5.0 0.00 0.00 0.00 80 1030.1
20260509012032 62 263 2.0 5.0 0.00 0.00 0.00 81 1030.1
20260509011534 62 263 1.0 4.0 0.00 0.00 0.00 82 1030.1
20260509011015 61 263 1.0 4.0 0.00 0.01 0.00 83 1030.2